User: anonymous   Login
Location: Bavegemberg
(50.9500°N, 3.8833°E)
Time: 18:18:31
(UTC+00:00)
Language:

Cosmos 1697 Rocket - Orbit

View from above orbital plane
View from above orbital plane
View from above satellite
View from above satellite

Ground track
Ground track

The orbit data is extracted from the following two-line orbital elements,

1 16182U 85097B   24199.76027288  .00000388  00000-0  21926-3 0  9994
2 16182  71.0046 323.4418 0005393  91.4873  15.5677 14.16433327  2271
Epoch (UTC): 17 July 2024 18:14:47
Eccentricity: 0.0005393
inclination: 71.0046°
perigee height: 833 km
apogee height: 841 km
right ascension of ascending node: 323.4418°
argument of perigee: 91.4873°
revolutions per day: 14.16433327
mean anomaly at epoch: 15.5677°
orbit number at epoch: 227

The dashed part of the orbit path shows where the satellite is in the earth's shadow,  

DLR